{"data":{"norad_id":51862,"intl_designator":"2022-022L","name":"STARLINK-3508","alt_names":[],"object_type":"PAYLOAD","status":"ACTIVE","operator":null,"country":"US","launch_date":"2022-03-03","launch_site_code":"AFETR","launch_vehicle":null,"mission":null,"orbit_class":"UNKNOWN","rcs_meters":null,"size_class":null,"mass_kg":null,"dimensions":null,"purposes":["comms"],"wikipedia_slug":null,"has_3d_model":false,"image_url":null,"decayed_at":null,"tle_current":{"epoch":"2026-09-20T03:24:28.842336Z","epoch_age_seconds":83197,"freshness":"FRESH","line1":"1 51862U 22022L   26263.14200049  .00000279  00000+0  19396-4 0  9998","line2":"2 51862  53.1603 205.0408 0001268  87.8789 272.2359 15.34388526252672","mean_motion":15.34388526,"eccentricity":0.0001268,"inclination_deg":53.1603,"raan_deg":205.0408,"arg_perigee_deg":87.8789,"mean_anomaly_deg":272.2359,"bstar":1.9396e-5,"rev_number":25267,"period_min":93.848459865243,"perigee_km":461.86992069889,"apogee_km":463.60476643242,"semimajor_km":6840.8743435657,"source":"CELESTRAK","updated_at":"2026-09-20T09:00:39.946349Z"}}}